Location: Newark
(0.5300°S, 127.4800°E)
Time: 05:44:38
(UTC+00:00)

A-11 Canister half - Pass Details

Date: 17 September 2019
Orbit: 1514 x 1686 km, 47.2° (Epoch: 16 October)

Event Time Altitude Azimuth Distance (km) Brightness Sun altitude
Rises 10:47:49 0° 327° (NNW) 4,732 12.1 -20.8°
Reaches altitude 10° 10:50:53 10° 330° (NNW) 3,771 11.4 -21.5°
Maximum altitude 11:00:25 66° 51° (NE) 1,743 9.0 -23.9°
Enters shadow 11:05:02 36° 120° (ESE) 2,409 9.5 -25.1°
Drops below altitude 10° 11:10:19 10° 131° (SE) 3,912 - -26.4°
Sets 11:13:32 0° 134° (SE) 4,916 - -27.2°
